SL-12 DEB, 41677

Orbit data source: Space-Track

SL-12 DEB, 41677 is space debris in HEO originally from a launch on Fri, 26 Oct 2007 UTC launched from the Tyuratam Missile And Space Complex (TTMTR). Debris objects in space refer to the collection of defunct objects orbiting the Earth. Examples of debris include non-operational satellites, rocket bodies, and fragments generated from explosions, collisions, or faulty payload assembly.

Loading next visibility...
Identifier
41677, 2007-052J
Orbit
HEO
Country
Flag of CISCIS
Related business
Manufacturer
RKKE
Mission
Spacecraft
Bus & Motor
Unknown
Mass
Unknown
Launch date (UTC)
2007-10-26 (18 years ago)
Launch vehicle
Unknown
Launch site
Tyuratam Missile And Space Complex (TTMTR)
Object type
Payload
Rocket body
Debris
Shape & HBR
Unknown shape, 0.7 m
Radar Cross Section
Medium (>0.1 m² and <1 m²)

Expand to show TLE details & history
Last TLE update: 5 days ago

TLE from 5 days ago
0 SL-12 DEB
1 41677U 07052J   25285.29850227  .00000549  00000-0  23152-2 0  9999
2 41677  65.0634 295.0427 5583139 238.6864  55.0107  4.38700614176837
Epoch: 2025-10-12T07:09Z
TLE epoch observation values (Epoch: 2025-10-12T07:09:50.596Z)
Latitude
0.00007°
Longitude
166.46241°
Altitude
8,914.968 km
Speed
5.181 km/s
True Right ascension
19h 40m 09s
True Declination
0° 00' 00"
Sunlit
Object was in daylight at epoch
Visualization orbit readout
Latitude
Unknown
Longitude
Unknown
Altitude
Unknown
Speed
Unknown
Apparent Right ascension
Unknown
Apparent Declination
Unknown
Sunlit
N/A
Visualization observer readout
Local Sidereal Time
16:22:52
Azimuth
Unknown
Elevation
Unknown
Doppler factor
Unknown
Orbital elements
Apogee altitude
18,182.904 km
Perigee altitude
583.407 km
Semi-major axis
15,761.292 km
Eccentricity
0.55831
Inclination
65.0634°
RAAN
295.0427°
Arg. of periapsis
238.6864°
True anomaly
121.37444°
Mean anomaly
55.0107°
Eccentric anomaly
86.95455°
Mean motion
1.09687 °/min
Orbital period
328.21 mins
BSTAR
0.0023152
Loading maneuver chart data...
Computing Atmospheric mass density...
Loading historical data...
Loading historical data...
Loading historical data...
Loading historical data...
Loading historical data...
Loading historical data...
Loading historical data...

Documentation

Showing up to 5 results
|